OpenBCM V1.07b12 (Linux)

Packet Radio Mailbox

SR8BBS

[OBCM_Lublin]

 Login: GUEST





  
I0OJJ  > KEPS     30.06.25 05:58z 343 Lines 16342 Bytes #13 (0) @ AMSAT
BID : ORB25176.1
Subj: 2Line Orbital Elements 25176.AMSAT
Path: SR8BBS<SR6DWH<SR1BSZ<EA2RCF<I0OJJ
Sent: 250625/0025z @:I0OJJ.ITA.EU [Rome] obcm1.08-10-g596e
From: I0OJJ @ I0OJJ.ITA.EU (Gustavo)
To:   KEPS @ AMSAT
X-Info: This message was generated automatically


QST de W1STR

AMSAT Orbital Elements for Amateur Satellites in TLE Format
From Orbital Analysis Office
New England Sci-Tech STEM Education Center
Natick, MA June 25, 2025
To all radio amateurs


These element sets describe the orbits of various satellites 
in use by the amateur radio community. For details see:
www.amsat.org/keplerian-elements-formats/

A daily update of element sets is available at:
www.amsat.org/tle/daily-bulletin.txt
or without bulletin text:
www.amsat.org/tle/dailytle.txt


AO-07
1 07530U 74089B   25175.50840484 -.00000030  00000-0  10431-3 0  9992
2 07530 101.9928 179.9314 0012649  93.6533  58.3974 12.53689829315932
UO-11
1 14781U 84021B   25175.31395462  .00000937  00000-0  10434-3 0  9993
2 14781  97.7552 141.3917 0006357 293.0670  66.9877 14.89424539203830
AO-27
1 22825U 93061C   25175.67245738  .00000073  00000-0  45000-4 0  9993
2 22825  98.7360 237.3029 0009470  71.9295 288.2918 14.30803892656141
FO-29
1 24278U 96046B   25175.68670524  .00000004  00000-0  43218-4 0  9992
2 24278  98.5742  67.5901 0349004 303.5824  53.2449 13.53249699425068
NOAA-15
1 25338U 98030A   25175.81667532  .00000193  00000-0  97167-4 0  9996
2 25338  98.5341 200.5806 0009347 320.1886  39.8608 14.26987474410578
GO-32
1 25397U 98043D   25175.51430519  .00000042  00000-0  38256-4 0  9992
2 25397  98.9708 154.9455 0001862 131.3640 228.7698 14.24318394400417
ISS
1 25544U 98067A   25175.76713781  .00009265  00000-0  16877-3 0  9994
2 25544  51.6388 269.5022 0001927 277.8753 226.8979 15.50227804516332
NO-44
1 26931U 01043C   25175.17585036  .00000094  00000-0  66158-4 0  9997
2 26931  67.0511  90.1023 0006123 276.6170  83.4235 14.31741019239199
SO-50
1 27607U 02058C   25175.33436269  .00001016  00000-0  14379-3 0  9998
2 27607  64.5515 154.9904 0058061 330.7829  29.0032 14.81659692211410
CO-55
1 27844U 03031E   25175.50558852  .00000231  00000-0  11950-3 0  9995
2 27844  98.6753 183.5862 0010425 138.5420 221.6551 14.24006560140761
CO-57
1 27848U 03031J   25175.46097244  .00000196  00000-0  10574-3 0  9998
2 27848  98.6783 183.5367 0009960 154.9352 205.2312 14.23339734140489
RS-22
1 27939U 03042A   25175.83934678  .00000706  00000-0  11985-3 0  9997
2 27939  98.3290 345.6602 0010636 327.2754 169.5777 14.72384901163073
CO-58
1 28895U 05043F   25175.34653745  .00001018  00000-0  17396-3 0  9990
2 28895  98.2514 319.8826 0013244 258.8313 101.1404 14.71054686 49112
CO-65
1 32785U 08021C   25175.56972378  .00002763  00000-0  20141-3 0  9992
2 32785  97.7857 146.8459 0010667 151.0739 209.1079 15.04550562931333
CO-66
1 32791U 08021J   25175.52673816  .00006948  00000-0  33528-3 0  9992
2 32791  97.7272 155.9039 0005796 109.4800 250.7060 15.19001042932769
RS-30
1 32953U 08025A   25175.85397060  .00000043  00000-0  24129-3 0  9993
2 32953  82.5017 217.6795 0019422  16.5630 343.6080 12.43165604775435
NOAA-19
1 33591U 09005A   25175.84877407  .00000152  00000-0  10526-3 0  9995
2 33591  98.9968 240.6386 0012992 324.2774  35.7527 14.13381124844264
SRMSAT
1 37841U 11058D   25175.79680706  .00000365  00000-0  54382-4 0  9991
2 37841  19.9730  62.4612 0011750 231.8720 191.7169 14.11440277707483
ZACUBE-1
1 39417U 13066B   25175.29416429  .00003835  00000-0  33390-3 0  9997
2 39417  97.7806 132.2295 0044100   5.6606 354.5105 14.96775533627119
Delfi-N3xt
1 39428U 13066N   25175.75376354  .00003897  00000-0  39863-3 0  9991
2 39428  97.8349  93.2364 0083328 311.5287  47.8801 14.88570414621511
GOMX-1
1 39430U 13066Q   25175.82596945  .00001416  00000-0  22544-3 0  9995
2 39430  97.6821  33.5539 0133221 143.1184 217.9276 14.67688208617644
LO-74
1 39440U 13066AA  25175.58641383  .00002543  00000-0  25980-3 0  9995
2 39440  97.8500 120.0435 0063181 129.5773 231.1048 14.90011968623671
AO-73
1 39444U 13066AE  25175.33217307  .00003569  00000-0  26863-3 0  9997
2 39444  97.7809 137.3056 0041515 339.2620  20.6918 15.02506542625809
DTUSAT-2
1 40030U 14033W   25175.88076224  .00004886  00000-0  31805-3 0  9991
2 40030  98.0550 148.4412 0009524  18.5583 341.5990 15.08428909599213
EO-80
1 40032U 14033Y   25175.90018470  .00003768  00000-0  24585-3 0  9990
2 40032  98.0435 148.0955 0007196 318.4280  41.6399 15.08515391599206
LILACSAT-2
1 40908U 15049K   25175.88838323  .00008319  00000-0  21573-3 0  9995
2 40908  97.5044 196.6062 0011105 104.6417 255.6061 15.39212558540581
IO-86
1 40931U 15052B   25151.18580175  .00001241  00000-0  78118-4 0  9996
2 40931   6.0006  24.0987 0012733 338.8432  21.1169 14.78805930523047
Horyu-4
1 41340U 16012D   25175.60647281  .00014086  00000-0  36826-3 0  9993
2 41340  30.9978  30.8406 0005945 221.7369 138.2823 15.37437474515108
Lapan A3
1 41603U 16040E   25175.87094762  .00002597  00000-0  91965-4 0  9995
2 41603  97.1363 179.8789 0010053 205.8050 154.2691 15.29949872500125
CAS-2T
1 41847U 16066G   25175.16969394  .00001377  00000-0  20276-3 0  9998
2 41847  98.4199 249.5048 0346963 134.2582 228.7649 14.43527159453128
CAS-4B
1 42759U 17034B   25175.60010486  .00044094  00000-0  43126-3 0  9997
2 42759  43.0054 232.2312 0019949  31.3488 328.8563 15.65150485444950
CAS-4A
1 42761U 17034D   25175.62050371  .00046111  00000-0  42625-3 0  9994
2 42761  43.0091 229.0938 0020994  36.3444 323.8844 15.66507210444984
TechnoSat
1 42829U 17042E   25174.90288125  .00001378  00000-0  10995-3 0  9999
2 42829  97.3857 342.9303 0015120 223.7961 136.2066 15.01767173432875
AO-91
1 43017U 17073E   25175.55477675  .00005434  00000-0  27668-3 0  9997
2 43017  97.5239  45.9493 0173897 115.3449 246.5900 15.04930133411469
S-Net D
1 43186U 18014G   25175.65499907  .00003000  00000-0  17865-3 0  9998
2 43186  97.5621  78.4085 0009436 162.6442 197.5113 15.11946563404650
S-Net B
1 43187U 18014H   25175.66059535  .00003209  00000-0  19091-3 0  9993
2 43187  97.5627  78.3865 0010265 158.9142 201.2513 15.11926419404654
S-Net A
1 43188U 18014J   25175.78769745  .00002956  00000-0  17602-3 0  9992
2 43188  97.5633  78.6643 0010136 159.0354 201.1294 15.11952027404674
S-Net C
1 43189U 18014K   25175.66303476  .00003261  00000-0  19387-3 0  9997
2 43189  97.5649  78.5577 0011822 153.8828 206.3001 15.11921792403204
Ten-Koh
1 43677U 18084G   25175.39899105  .00001427  00000-0  11804-3 0  9993
2 43677  98.0854 348.2415 0006615 200.6947 159.4009 15.00631597362462
PO-101
1 43678U 18084H   25175.74781347  .00001238  00000-0  10921-3 0  9990
2 43678  98.1026 352.4513 0007879 233.3773 126.6724 14.98381774362650
QO-100
1 43700U 18090A   25175.83251020  .00000144  00000-0  00000+0 0  9991
2 43700   0.0150 324.8772 0002212 172.3472 101.5058  1.00273019 24333
MinXSS-2
1 43758U 18099A   25175.47818915  .00009467  00000-0  36881-3 0  9992
2 43758  97.5019 241.5644 0013298 104.4334 255.8381 15.26111398359240
AO-95
1 43770U 18099N   25175.68448891  .00005597  00000-0  28250-3 0  9992
2 43770  97.4912 233.6043 0011586 152.9505 207.2334 15.17457006358849
RANGE-A
1 43773U 18099R   25175.58541576  .00002774  00000-0  17812-3 0  9994
2 43773  97.4474 223.5522 0012652 134.9552 225.2705 15.09205456358485
MOVE-II
1 43780U 18099Y   25175.15052326  .00306645  00000-0  12337-2 0  9995
2 43780  97.4641 252.0049 0005830 217.4072 142.6793 15.85634007360107
SNUSat 2
1 43782U 18099AA  25175.60237674  .00004654  00000-0  25361-3 0  9995
2 43782  97.4590 230.1517 0013738 101.7949 258.4825 15.14801676358775
SnugLite
1 43784U 18099AC  25175.57956534  .00005814  00000-0  29081-3 0  9998
2 43784  97.4404 229.7201 0005168 103.5060 256.6749 15.17794640358913
ITASat 1
1 43786U 18099AE  25175.69078168  .00004530  00000-0  25891-3 0  9990
2 43786  97.4560 229.7038 0015311 149.4735 210.7390 15.13088964358740
EAGLET 1
1 43790U 18099AJ  25175.40302536  .00002483  00000-0  16000-3 0  9990
2 43790  97.4758 229.3304 0013369 133.8254 226.4082 15.09160237358303
ESEO
1 43792U 18099AL  25175.58457221  .00000995  00000-0  78765-4 0  9996
2 43792  97.4479 222.5720 0015252 108.4031 251.8855 15.02670310358071
CSIM
1 43793U 18099AM  25175.17190210  .00057753  00000-0  33174-3 0  9992
2 43793  97.4790 254.2316 0005337 154.1335 206.0200 15.78588676359948
JO-97
1 43803U 18099AX  25175.71589818  .00007676  00000-0  34764-3 0  9995
2 43803  97.4655 234.6582 0009121  94.5612 265.6666 15.21119931359070
Suomi 100
1 43804U 18099AY  25175.68900068  .00006122  00000-0  29823-3 0  9991
2 43804  97.4724 233.8851 0014006  96.4486 263.8344 15.18629890358995
ISAT
1 43879U 18111D   25175.73179604  .00011399  00000-0  38996-3 0  9991
2 43879  97.5958  90.4644 0010190 135.0804 225.1262 15.30375263353999
UWE-4
1 43880U 18111E   25175.75232068  .00009119  00000-0  35394-3 0  9995
2 43880  97.5900  88.8571 0012896 149.0402 211.1599 15.26256025353944
Sparrow
1 43881U 18111F   25175.76673898  .00012483  00000-0  41065-3 0  9997
2 43881  97.6104  93.4370 0007197 166.2357 193.9082 15.31644130354117
Prox-1
1 44339U 19036A   25175.11291850  .00006089  00000-0  74924-3 0  9991
2 44339  23.9985 326.3152 0006691 240.9590 119.0237 14.80210608320170
SONATE
1 44400U 19038Q   25175.58124886  .00571712  16658-3  69682-3 0  9991
2 44400  97.6702 204.8412 0009077 187.8470 172.2671 16.08026976331978
Taurus 1
1 44530U 19059C   25175.87926715  .00003727  00000-0  68939-3 0  9992
2 44530  98.6084 316.0004 0008505 356.1003   4.0132 14.65993002306180
Duchifat 3
1 44854U 19089C   25175.59621844  .00028861  00000-0  54250-3 0  9995
2 44854  36.9427 259.6348 0003326  81.4933 278.6201 15.47698486305278
TO-108
1 44881U 19093C   25175.84917033  .00000644  00000-0  80396-4 0  9996
2 44881  97.7923 251.1798 0013906 175.5475 184.5866 14.85627268298343
